(162613) = 2000 SE102 = 2004 XP150

Discovered at Socorro on 2000-09-24 by LINEAR.

Orbit

Orbit type: Main Belt

Note: WebGL enabled browser required.

epoch2024-03-31.0
epoch JD2460400.5
perihelion date2021-09-25.16578
perihelion JD2459482.66578
argument of perihelion (°)338.94687
ascending node (°)344.17384
inclination (°)4.09135
eccentricity0.1531630
perihelion distance (AU)1.9721774
Tisserand w.r.t. Jupiter3.6
ΔV w.r.t. Earth (km/sec)8.8
semimajor axis (AU)2.3288749
mean anomaly (°)254.53579
mean daily motion (°/day)0.27732220
aphelion distance (AU)2.686
period (years)3.55
P-vector [x]0.80015129
P-vector [y]-0.53960635
P-vector [z]-0.26188336
Q-vector [x]0.59948253
Q-vector [y]0.70531031
Q-vector [z]0.37836235
absolute magnitude17.26
phase slope0.15
uncertainty0
referenceMPEC 2024-F50
observations used339
oppositions16
arc length (days)8577
first opposition used2000
last opposition used2024
residual rms (arc-secs)0.75
perturbers coarse indicatorM-v
perturbers precise indicator003Ek
first observation date used2000-09-24.0
last observation date used2024-03-19.0
computer nameMPCLINUX
JD of orbit computation2456966.843184
perihelion JD uncertainty (days)3.8232E-05
argument of perihelion uncertainty (°)4.6848E-05
ascending node uncertainty (°)4.5075E-05
inclination uncertainty (°)5.1241E-06
eccentricity uncertainty 6.4668E-08
perihelion distance uncertainty (AU)1.5656E-07
Minimum Orbit Intersection Distances (in AU)
for orbit epoch: 2460400.5, reference: E2024-GD4
Mercury1.55142
Venus1.24451
Earth0.96041
Mars0.58506
Jupiter2.60941
Saturn6.45758
Uranus15.7731
Neptune27.4947

Observations

353 total observations over interval: 2000 09 24.33558 – 2024 03 19.535756
These data are available for download (format description).

Date (UT) J2000 RA J2000 Dec Magn Location Ref
2000 09 24.33558 00 37 15.57 +07 17 02.9 19.3   704 – Lincoln Laboratory ETS, New Mexico MPS 19932
2000 09 24.36571 00 37 13.75 +07 16 54.6 19.9   704 – Lincoln Laboratory ETS, New Mexico MPS 19932
2000 09 24.38066 00 37 12.78 +07 16 52.7 19.5   704 – Lincoln Laboratory ETS, New Mexico MPS 19932
2000 09 24.39565 00 37 11.86 +07 16 49.6 19.6   704 – Lincoln Laboratory ETS, New Mexico MPS 19932
2000 09 26.32587 00 35 18.22 +07 10 46.7 19.0 R 699 – Lowell Observatory-LONEOS MPS 26676
2000 09 26.34431 00 35 17.09 +07 10 43.1   699 – Lowell Observatory-LONEOS MPS 26676
2000 09 26.36276 00 35 15.87 +07 10 39.7   699 – Lowell Observatory-LONEOS MPS 26676
2000 09 26.38119 00 35 14.76 +07 10 35.5   699 – Lowell Observatory-LONEOS MPS 26676
2000 09 27.25653 00 34 23.06 +07 07 44.8 18.8   704 – Lincoln Laboratory ETS, New Mexico MPS 19932
2000 09 27.27163 00 34 22.11 +07 07 41.0 19.7   704 – Lincoln Laboratory ETS, New Mexico MPS 19932
2000 09 27.28670 00 34 21.22 +07 07 38.6 19.3   704 – Lincoln Laboratory ETS, New Mexico MPS 19932
2000 09 27.30178 00 34 20.28 +07 07 36.0 19.2   704 – Lincoln Laboratory ETS, New Mexico MPS 19932
2000 09 27.31687 00 34 19.38 +07 07 33.2 19.2   704 – Lincoln Laboratory ETS, New Mexico MPS 19932
2000 10 02.30311 00 29 21.71 +06 50 06.0 19.0   704 – Lincoln Laboratory ETS, New Mexico MPS 19932
2000 10 02.31869 00 29 20.75 +06 50 01.9 19.2   704 – Lincoln Laboratory ETS, New Mexico MPS 19932
2000 10 02.33486 00 29 19.69 +06 49 58.6 19.4   704 – Lincoln Laboratory ETS, New Mexico MPS 19932
2000 10 02.35036 00 29 18.76 +06 49 55.0 19.3   704 – Lincoln Laboratory ETS, New Mexico MPS 19932
2000 10 02.36597 00 29 17.77 +06 49 52.0 19.6   704 – Lincoln Laboratory ETS, New Mexico MPS 19932
2004 12 02.14754 05 19 44.35 +29 59 07.7 20.6 V 691 – Steward Observatory, Kitt Peak-Spacewatch MPS 123280
2004 12 02.18173 05 19 41.85 +29 59 06.5 20.6 V 691 – Steward Observatory, Kitt Peak-Spacewatch MPS 123280
2004 12 02.20866 05 19 39.87 +29 59 05.6 21.0 V 691 – Steward Observatory, Kitt Peak-Spacewatch MPS 123280
2004 12 15.11352 05 03 51.81 +29 39 34.5 20.6 V 691 – Steward Observatory, Kitt Peak-Spacewatch MPS 122858
2004 12 15.13899 05 03 49.93 +29 39 31.1 20.8 V 691 – Steward Observatory, Kitt Peak-Spacewatch MPS 122858
2004 12 15.16446 05 03 48.07 +29 39 28.2 20.4 V 691 – Steward Observatory, Kitt Peak-Spacewatch MPS 122858
2004 12 19.11485 04 59 10.90 +29 29 43.4 20.8 V 691 – Steward Observatory, Kitt Peak-Spacewatch MPS 123280
2004 12 19.14080 04 59 09.13 +29 29 39.2 20.5 V 691 – Steward Observatory, Kitt Peak-Spacewatch MPS 123280
2004 12 19.16614 04 59 07.33 +29 29 35.4 21.2 V 691 – Steward Observatory, Kitt Peak-Spacewatch MPS 123280
2004 12 20.12513 04 58 02.46 +29 27 00.5 20.5 V 691 – Steward Observatory, Kitt Peak-Spacewatch MPS 122858
2004 12 20.15064 04 58 00.72 +29 26 56.8 20.5 V 691 – Steward Observatory, Kitt Peak-Spacewatch MPS 122858
2004 12 20.17631 04 57 58.91 +29 26 52.8 20.6 V 691 – Steward Observatory, Kitt Peak-Spacewatch MPS 122858
2006 03 04.33242 12 10 58.99 -02 37 21.2   691 – Steward Observatory, Kitt Peak-Spacewatch MPS 165918
2006 03 04.34981 12 10 58.07 -02 37 17.8   691 – Steward Observatory, Kitt Peak-Spacewatch MPS 165918
2006 03 04.36720 12 10 57.17 -02 37 14.1   691 – Steward Observatory, Kitt Peak-Spacewatch MPS 165918
2006 04 02.28902 11 43 15.45 -00 25 16.8 20.5 V G96 – Mt. Lemmon Survey MPS 168190
2006 04 02.29520 11 43 15.09 -00 25 15.2 20.6 V G96 – Mt. Lemmon Survey MPS 168190
2006 04 02.30103 11 43 14.73 -00 25 13.5 21.0 V G96 – Mt. Lemmon Survey MPS 168190
2006 04 02.30677 11 43 14.41 -00 25 12.0 20.6 V G96 – Mt. Lemmon Survey MPS 168190
2007 08 17.68503 23 30 30.47 -04 07 47.5 19.3 R D29 – Purple Mountain Observatory, XuYi Station MPS 213660
2007 08 17.69611 23 30 30.05 -04 07 47.0 19.3 R D29 – Purple Mountain Observatory, XuYi Station MPS 213660
2007 08 17.70670 23 30 29.62 -04 07 48.0 19.3 R D29 – Purple Mountain Observatory, XuYi Station MPS 213660
2007 08 17.71709 23 30 29.24 -04 07 48.5 19.6 R D29 – Purple Mountain Observatory, XuYi Station MPS 213660
2007 08 22.31377 23 27 23.29 -04 12 47.4 19.1   704 – Lincoln Laboratory ETS, New Mexico MPS 214362
2007 08 22.32643 23 27 22.73 -04 12 48.7 19.6   704 – Lincoln Laboratory ETS, New Mexico MPS 214362
2007 08 22.33875 23 27 22.16 -04 12 49.2 19.3   704 – Lincoln Laboratory ETS, New Mexico MPS 214362
2007 08 22.36337 23 27 21.00 -04 12 51.5 19.6   704 – Lincoln Laboratory ETS, New Mexico MPS 214362
2007 09 10.24740 23 10 30.32 -04 54 15.0 18.9 V 703 – Catalina Sky Survey MPS 214983
2007 09 10.25443 23 10 29.92 -04 54 16.4 18.8 V 703 – Catalina Sky Survey MPS 214983
2007 09 10.26147 23 10 29.49 -04 54 18.5 19.1 V 703 – Catalina Sky Survey MPS 214983
2007 09 10.27370 23 10 28.74 -04 54 19.9 18.8 V 703 – Catalina Sky Survey MPS 214983
2007 09 10.29082 23 10 27.69 -04 54 22.8 18.8 V G96 – Mt. Lemmon Survey MPS 214983
2007 09 10.29789 23 10 27.22 -04 54 23.9 18.8 V G96 – Mt. Lemmon Survey MPS 214983
2007 09 10.30495 23 10 26.79 -04 54 25.1 18.8 V G96 – Mt. Lemmon Survey MPS 214983
2007 09 10.31201 23 10 26.40 -04 54 26.3 18.8 V G96 – Mt. Lemmon Survey MPS 214983
2007 09 12.30557 23 08 31.34 -04 59 33.8 18.6 R 699 – Lowell Observatory-LONEOS MPS 214983
2007 09 12.32843 23 08 29.94 -04 59 38.1   699 – Lowell Observatory-LONEOS MPS 214983
2007 09 12.35127 23 08 28.56 -04 59 40.9   699 – Lowell Observatory-LONEOS MPS 214983
2007 09 12.37410 23 08 27.19 -04 59 45.2   699 – Lowell Observatory-LONEOS MPS 214983
2007 09 14.31775 23 06 36.56 -05 04 39.8 18.7 R 699 – Lowell Observatory-LONEOS MPS 215989
2007 09 14.34061 23 06 35.17 -05 04 42.8   699 – Lowell Observatory-LONEOS MPS 215989
2007 09 14.36344 23 06 33.87 -05 04 45.5   699 – Lowell Observatory-LONEOS MPS 215989
2007 09 14.38627 23 06 32.49 -05 04 48.6   699 – Lowell Observatory-LONEOS MPS 215989
2007 10 04.22532 22 51 26.31 -05 38 10.8 19.6 V G96 – Mt. Lemmon Survey MPS 218386
2007 10 04.23241 22 51 26.10 -05 38 10.9 19.6 V G96 – Mt. Lemmon Survey MPS 218386
2007 10 04.23947 22 51 25.84 -05 38 11.2 19.7 V G96 – Mt. Lemmon Survey MPS 218386
2007 10 04.24655 22 51 25.59 -05 38 11.4 19.6 V G96 – Mt. Lemmon Survey MPS 218386
2007 10 11.23515 22 48 38.26 -05 38 30.7 19.8 V G96 – Mt. Lemmon Survey MPS 220066
2007 10 11.24226 22 48 38.16 -05 38 30.3 19.8 V G96 – Mt. Lemmon Survey MPS 220066
2007 10 11.24940 22 48 37.98 -05 38 30.2 19.8 V G96 – Mt. Lemmon Survey MPS 220066
2007 10 11.25661 22 48 37.87 -05 38 30.1 19.6 V G96 – Mt. Lemmon Survey MPS 220066
2007 11 02.15266 22 50 23.71 -04 50 39.9 20.5 V G96 – Mt. Lemmon Survey MPS 226543
2007 11 02.15906 22 50 23.85 -04 50 38.6 20.2 V G96 – Mt. Lemmon Survey MPS 226543
2007 11 02.16529 22 50 24.00 -04 50 36.9 20.6 V G96 – Mt. Lemmon Survey MPS 226543
2007 11 02.17163 22 50 24.14 -04 50 35.4 20.5 V G96 – Mt. Lemmon Survey MPS 226543
2007 12 06.10012 23 18 57.56 -01 26 07.6 21.1 V G96 – Mt. Lemmon Survey MPS 230813
2007 12 06.10668 23 18 58.03 -01 26 04.4 21.2 V G96 – Mt. Lemmon Survey MPS 230813
2007 12 06.11326 23 18 58.50 -01 26 01.1 21.4 V G96 – Mt. Lemmon Survey MPS 230813
2007 12 06.11988 23 18 58.96 -01 25 58.0 21.3 V G96 – Mt. Lemmon Survey MPS 230813
2008 12 29.39598 09 05 07.08 +21 06 17.6 21.5 V G96 – Mt. Lemmon Survey MPS 271571
2008 12 29.40494 09 05 06.72 +21 06 19.1 21.2 V G96 – Mt. Lemmon Survey MPS 271571
2008 12 29.41397 09 05 06.32 +21 06 21.0 21.4 V G96 – Mt. Lemmon Survey MPS 271571
2008 12 29.42301 09 05 05.92 +21 06 22.5 21.5 V G96 – Mt. Lemmon Survey MPS 271571
2008 12 31.42298 09 03 43.47 +21 12 19.1 20.8 V 691 – Steward Observatory, Kitt Peak-Spacewatch MPS 271571
2008 12 31.43875 09 03 42.73 +21 12 22.0 20.7 V 691 – Steward Observatory, Kitt Peak-Spacewatch MPS 271571
2008 12 31.45451 09 03 42.03 +21 12 24.7 21.0 V 691 – Steward Observatory, Kitt Peak-Spacewatch MPS 271571
2010 08 09.13637 15 14 18.78 -23 05 53.5   C51 – WISE MPS 346002
2010 08 09.26868 15 14 28.14 -23 06 14.1   C51 – WISE MPS 346002
2010 08 09.40086 15 14 37.50 -23 06 31.1   C51 – WISE MPS 346002
2010 08 09.40098 15 14 37.67 -23 06 30.9   C51 – WISE MPS 346002
2010 08 09.53316 15 14 46.88 -23 06 49.7   C51 – WISE MPS 346002
